Location: Unspecified
(0.0000°N, 0.0000°E)
Time: 02:48:13
(UTC+00:00)

Tiros 1 despin weight - Pass Details

Date: 18 December 2018
Orbit: 594 x 643 km, 48.2° (Epoch: 19 March)

Event Time Altitude Azimuth Distance (km) Brightness Sun altitude
Rises 19:29:26 0° 217° (SW) 2,828 ? -21.2°
Reaches altitude 10° 19:31:43 10° 216° (SW) 1,922 ? -21.7°
Maximum altitude 19:36:08 80° 128° (SE) 603 ? -22.7°
Enters shadow 19:36:21 76° 86° (E) 610 ? -22.7°
